RAM414 GMMX-GMMN

Flight info

Callsign RAM414
Flight time N/A
Altitude 18000
Route MABAP R722 FOBAC
Aircraft B738/M-SDE2E3FGHIRWXY/LB1

Departure

Time 2026-05-05 21:13
Airport Marrakesh Menara Airport (GMMX)

Arrival

Time N/A
Airport Mohammed V International Airport (GMMN)
Time Latitude Longitude Altitude Speed Heading
2026-05-05 20:59 31.60283 -8.01889 1538 ft 0 kts 186°
2026-05-05 21:04 31.60300 -8.01887 1532 ft 4 kts 185°
2026-05-05 21:04 31.60326 -8.01884 1538 ft 2 kts 187°
2026-05-05 21:04 31.60346 -8.01878 1531 ft 4 kts 218°
2026-05-05 21:04 31.60358 -8.01855 1538 ft 4 kts 266°
2026-05-05 21:05 31.60358 -8.01825 1538 ft 2 kts 276°
2026-05-05 21:05 31.60357 -8.01822 1533 ft 0 kts 276°
2026-05-05 21:09 31.60358 -8.01831 1531 ft 4 kts 276°
2026-05-05 21:09 31.60363 -8.01887 1538 ft 8 kts 275°
2026-05-05 21:09 31.60369 -8.01952 1530 ft 8 kts 276°
2026-05-05 21:10 31.60372 -8.01996 1538 ft 4 kts 276°
2026-05-05 21:10 31.60382 -8.02026 1533 ft 4 kts 306°
2026-05-05 21:10 31.60407 -8.02039 1538 ft 4 kts 356°
2026-05-05 21:10 31.60435 -8.02036 1538 ft 4 kts
2026-05-05 21:11 31.60440 -8.02036 1536 ft 0 kts
2026-05-05 21:11 31.60441 -8.02035 1538 ft 0 kts
2026-05-05 21:11 31.60464 -8.02033 1533 ft 7 kts
2026-05-05 21:12 31.60516 -8.02030 1537 ft 7 kts 351°
2026-05-05 21:12 31.60550 -8.02068 1534 ft 7 kts 290°
2026-05-05 21:12 31.60553 -8.02088 1537 ft 0 kts 276°
2026-05-05 21:13 31.60563 -8.02199 1538 ft 51 kts 276°
2026-05-05 21:13 31.60631 -8.02977 1542 ft 137 kts 276°
2026-05-05 21:13 31.60745 -8.04328 1852 ft 184 kts 277°
2026-05-05 21:13 31.60870 -8.05969 2452 ft 220 kts 274°
2026-05-05 21:14 31.61053 -8.07895 2836 ft 258 kts 278°
2026-05-05 21:14 31.61260 -8.10081 3541 ft 275 kts 277°
2026-05-05 21:14 31.61450 -8.12195 4701 ft 265 kts 276°
2026-05-05 21:14 31.61640 -8.14357 5701 ft 262 kts 276°
2026-05-05 21:15 31.61957 -8.16458 5969 ft 257 kts 291°
2026-05-05 21:15 31.62894 -8.18224 6015 ft 257 kts 312°
2026-05-05 21:15 31.64274 -8.19547 6023 ft 255 kts 330°
2026-05-05 21:15 31.65911 -8.20332 6030 ft 254 kts 345°